Regional Weather Roundup
Issued by NWS Sioux Falls, SD

Home | Current Version | Previous Version | Text Only | Print | Product List | Glossary Off
Versions: 1 2 3 4 5 6 7 8 9 10 11 12 13 14 15 16 17 18 19 20 21 22 23 24 25 26 27 28 29 30 31 32 33 34 35 36 37 38 39 40 41 42 43 44 45 46 47 48 49 50

000
ASUS43 KFSD 031310
RWRFSD

WEATHER ROUNDUP FOR SE SOUTH DAKOTA/SW MINNESOTA/NW IOWA
NATIONAL WEATHER SERVICE SIOUX FALLS SD
800 AM CDT FRI JUL 03 2015

NOTE: "FAIR" INDICATES FEW OR NO CLOUDS BELOW 12,000 FEET WITH NO
SIGNIFICANT WEATHER AND OR OBSTRUCTIONS TO VISIBILITY.


SDZ038>040-050-052>070-031400-
SOUTHEAST SOUTH DAKOTA

CITY           SKY/WX    TMP DP  RH WIND       PRES   REMARKS
BROOKINGS      SUNNY     57  54  88 W3        30.04S
CHAMBERLAIN    FOG       63  63 100 CALM      30.02S VSB<1/4
HURON          FOG       59  59 100 S3        30.00S VSB 1/4
MADISON        CLOUDY    57  57 100 W3        30.03S
MITCHELL       FOG       62  62 100 S3        30.02S VSB 1/4
SIOUX FALLS    SUNNY     57  55  93 CALM      30.03R
WINNER         FAIR      65  61  87 SW5       30.04R
YANKTON        CLOUDY    59  57  94 CALM      30.01S
$$

MNZ071-072-080-081-089-090-097-098-031400-
SOUTHWEST MINNESOTA

CITY           SKY/WX    TMP DP  RH WIND       PRES   REMARKS
FAIRMONT       SUNNY     61  52  72 CALM      30.00F
JACKSON        SUNNY     61  59  94 CALM      30.02S FOG
LUVERNE        CLOUDY    54  52  94 CALM      30.03S VSB<1/4
MARSHALL       SUNNY     59  54  82 W3        30.00S
MONTEVIDEO     SUNNY     63  57  82 CALM      30.00F
PIPESTONE      SUNNY     57  55  94 CALM      30.02S FOG
REDWOOD FALLS  SUNNY     61  53  75 W5        30.00S
TRACY          SUNNY     61  57  87 SW6       30.02R
WINDOM         SUNNY     59  55  88 CALM      30.02S
WORTHINGTON    SUNNY     59  55  88 W5        30.03R
$$

IAZ001>003-012>014-020>022-031-032-NEZ013-014-SDZ071-031400-
NORTHWEST IOWA

CITY           SKY/WX    TMP DP  RH WIND       PRES   REMARKS
CHEROKEE       FOG       52  52 100 CALM      30.03R VSB<1/4
DENISON        SUNNY     55  55 100 CALM      30.01R
ESTHERVILLE    SUNNY     58  57  97 CALM      30.01F
LE MARS        FOG       54  54 100 CALM      30.03S VSB<1/4
ORANGE CITY    MOSUNNY   57  55  94 CALM      30.02F
SHELDON        FOG       54  54 100 MISG      30.01F VSB<1/4
SIOUX CITY     MOSUNNY   57  55  93 CALM      30.02S
SPENCER        PTSUNNY   53  51  93 CALM      30.03R FOG
STORM LAKE     SUNNY     59  57  94 CALM      30.03S
$$

ABBREVIATIONS USED IN REMARKS
   TC - TEMPERATURE IN CELSIUS
  WCI - WIND CHILL INDEX
   HX - HEAT INDEX
  VSB - VISIBILITY




USA.gov is the U.S. government's official web portal to all federal, state and local government web resources and services.